Battle Creek, MI

4:17 AM EST on December 07, 2019 (GMT -0500)
Kellogg

Weather History for KBTL - July, 2019

Change the Weather History Date:

Wednesday, July 31, 2019

  Actual Average Record
Temperature  
Mean Temperature 69 °F 70 °F  
Max Temperature 81 °F 82 °F 95 °F (2007)
Min Temperature 57 °F 59 °F 54 °F (2014)
Degree Days  
Heating Degree Days 0 1  
Month to date heating degree days 0 7  
Since 1 June heating degree days 46 72  
Since 1 July heating degree days 0 15  
Cooling Degree Days 4 6  
Month to date cooling degree days 334 197  
Year to date cooling degree days 475 361  
Since 1 June cooling degree days 459 323  
Growing Degree Days 18 (Base 50)    
Moisture  
Dew Point 58 °F    
Average Humidity 71    
Maximum Humidity 93    
Minimum Humidity 48    
Precipitation  
Precipitation 0.00 in 0.11 in 0.38 in (2018)
Month to date precipitation 2.06 3.36  
Year to date precipitation 20.35 18.07  
Sea Level Pressure  
Sea Level Pressure 30.12 in    
Wind  
Wind Speed 7 mph (NNE)    
Max Wind Speed 15 mph    
Max Gust Speed 19 mph    
Visibility 10 miles    
Events      
T = Trace of Precipitation, MM = Missing Value Source: NWS Daily Summary

Daily Weather History Graph

Daily Weather History Graph

Search for Another Location

Airport or City:

Astronomy

Jul. 31, 2019 Rise Set
Actual Time 6:32 AM EDT 9:01 PM EDT
Civil Twilight 6:00 AM EDT 9:33 PM EDT
Nautical Twilight 5:20 AM EDT 10:13 PM EDT
Astronomical Twilight 4:36 AM EDT 10:57 PM EDT
Moon 5:43 AM EDT (7/31) 9:01 PM EDT (7/31)
Length of Visible Light 15h 32m
Length of Day
14h 29m
Waning Crescent, 0% of the Moon is Illuminated
Jul 31
Waning Crescent
Jul 31
New
Aug 7
First Quarter
Aug 15
Full
Aug 23
Last Quarter

Hourly Weather History & Observations

Time (EDT) Temp. Dew Point Humidity Pressure Visibility Wind Dir Wind Speed Gust Speed Precip Events Conditions
12:53 AM 60.1 °F 54.0 °F 80% 30.06 in 10.0 mi West 3.5 mph - N/A   Clear
1:53 AM 59.0 °F 54.0 °F 83% 30.05 in 10.0 mi NNW 4.6 mph - N/A   Clear
2:53 AM 57.9 °F 55.0 °F 90% 30.06 in 10.0 mi NW 3.5 mph - N/A   Clear
3:53 AM 57.9 °F 55.0 °F 90% 30.06 in 10.0 mi NNW 3.5 mph - N/A   Scattered Clouds
4:21 AM 61.0 °F 57.9 °F 90% 30.08 in 10.0 mi NW 3.5 mph - N/A   Overcast
4:53 AM 62.1 °F 57.9 °F 86% 30.07 in 10.0 mi NW 3.5 mph - N/A   Overcast
5:22 AM 63.0 °F 57.9 °F 84% 30.09 in 10.0 mi North 4.6 mph - N/A   Overcast
5:53 AM 63.0 °F 59.0 °F 87% 30.08 in 10.0 mi North 9.2 mph - N/A   Overcast
6:53 AM 63.0 °F 59.0 °F 87% 30.10 in 10.0 mi NNE 10.4 mph - N/A   Overcast
7:49 AM 62.6 °F 59.0 °F 88% 30.13 in 10.0 mi NE 11.5 mph - N/A   Overcast
7:53 AM 63.0 °F 59.0 °F 87% 30.12 in 10.0 mi NE 11.5 mph - N/A   Overcast
8:53 AM 64.0 °F 59.0 °F 84% 30.13 in 10.0 mi NE 12.7 mph - N/A   Overcast
9:53 AM 66.0 °F 60.1 °F 81% 30.15 in 10.0 mi NE 8.1 mph - N/A   Overcast
10:53 AM 66.9 °F 59.0 °F 76% 30.16 in 10.0 mi NE 5.8 mph - N/A   Overcast
11:21 AM 69.1 °F 60.1 °F 73% 30.17 in 10.0 mi NE 8.1 mph - N/A   Overcast
11:53 AM 72.0 °F 60.1 °F 66% 30.16 in 10.0 mi NE 8.1 mph - N/A   Overcast
12:53 PM 73.9 °F 60.1 °F 62% 30.16 in 10.0 mi Variable 5.8 mph - N/A   Overcast
1:00 PM 75.0 °F 57.9 °F 55% 30.16 in 10.0 mi NE 8.1 mph - N/A   Overcast
1:53 PM 75.9 °F 57.9 °F 54% 30.15 in 10.0 mi North 8.1 mph - N/A   Overcast
2:53 PM 77.0 °F 57.9 °F 52% 30.15 in 10.0 mi NE 9.2 mph - N/A   Overcast
3:53 PM 79.0 °F 59.0 °F 50% 30.13 in 10.0 mi North 9.2 mph - N/A   Partly Cloudy
4:53 PM 75.9 °F 57.9 °F 54% 30.13 in 10.0 mi NE 4.6 mph - N/A   Mostly Cloudy
5:53 PM 78.1 °F 59.0 °F 52% 30.12 in 10.0 mi North 11.5 mph - N/A   Scattered Clouds
6:53 PM 78.1 °F 57.0 °F 48% 30.12 in 10.0 mi NNE 9.2 mph - N/A   Clear
7:53 PM 75.0 °F 55.9 °F 51% 30.12 in 10.0 mi NNE 9.2 mph - N/A   Clear
8:53 PM 71.1 °F 55.9 °F 59% 30.12 in 10.0 mi NNE 5.8 mph - N/A   Clear
9:53 PM 68.0 °F 57.0 °F 68% 30.14 in 10.0 mi NNE 4.6 mph - N/A   Clear
10:53 PM 66.0 °F 55.9 °F 70% 30.14 in 10.0 mi NNE 3.5 mph - N/A   Clear
11:53 PM 60.1 °F 55.0 °F 83% 30.17 in 10.0 mi Calm Calm - N/A   Clear